User: anonymous   Login
Location: Unspecified
(0.0000°N, 0.0000°E)
Time: 20:39:55
(UTC+00:00)
Language:

Gonets-D1 - Orbit

View from above orbital plane
View from above orbital plane
View from above satellite
View from above satellite

Ground track
Ground track

The orbit data is extracted from the following two-line orbital elements,

1 24727U 97006C   17172.93655198 +.00000031 +00000-0 +11182-3 0  9998
2 24727 082.6027 182.4482 0001242 065.9602 340.4591 12.62317777937496
Epoch (UTC): 21 June 2017 22:28:38
Eccentricity: 0.0001242
inclination: 82.6027°
perigee height: 1412 km
apogee height: 1414 km
right ascension of ascending node: 182.4482°
argument of perigee: 65.9602°
revolutions per day: 12.62317777
mean anomaly at epoch: 340.4591°
orbit number at epoch: 93749

The dashed part of the orbit path shows where the satellite is in the earth's shadow,  

DLR